TimeCST,TemperatureF,Dew PointF,Humidity,Sea Level PressureIn,VisibilityMPH,Wind Direction,Wind SpeedMPH,Gust SpeedMPH,PrecipitationIn,Events,Conditions,WindDirDegrees,DateUTC
12:15 AM,35.6,33.8,93,30.40,10.0,Calm,Calm,-,N/A,,Mostly Cloudy,0,2012-11-16 06:15:00
12:35 AM,35.6,33.8,93,30.40,10.0,Calm,Calm,-,N/A,,Mostly Cloudy,0,2012-11-16 06:35:00
12:55 AM,35.6,33.8,93,30.40,10.0,Calm,Calm,-,N/A,,Mostly Cloudy,0,2012-11-16 06:55:00
1:15 AM,35.6,33.8,93,30.40,10.0,NNE,3.5,-,N/A,,Overcast,30,2012-11-16 07:15:00
1:35 AM,35.6,33.8,93,30.40,7.0,Calm,Calm,-,N/A,,Unknown,0,2012-11-16 07:35:00
1:55 AM,35.6,33.8,93,30.40,10.0,Calm,Calm,-,N/A,,Unknown,0,2012-11-16 07:55:00
2:15 AM,33.8,33.8,100,30.40,7.0,Calm,Calm,-,N/A,,Clear,0,2012-11-16 08:15:00
2:35 AM,33.8,32.0,93,30.40,7.0,Calm,Calm,-,N/A,,Clear,0,2012-11-16 08:35:00
2:55 AM,32.0,32.0,100,30.41,5.0,Calm,Calm,-,N/A,,Clear,0,2012-11-16 08:55:00
3:15 AM,32.0,32.0,100,30.40,7.0,Calm,Calm,-,N/A,,Clear,0,2012-11-16 09:15:00
3:35 AM,32.0,32.0,100,30.41,5.0,Calm,Calm,-,N/A,,Clear,0,2012-11-16 09:35:00
3:55 AM,32.0,32.0,100,30.41,4.0,Calm,Calm,-,N/A,,Clear,0,2012-11-16 09:55:00
4:15 AM,30.2,30.2,100,30.41,4.0,Calm,Calm,-,N/A,,Clear,0,2012-11-16 10:15:00
4:35 AM,32.0,32.0,100,30.42,0.5,Calm,Calm,-,N/A,Fog,Fog,0,2012-11-16 10:35:00
5:15 AM,32.0,32.0,100,30.42,3.0,Calm,Calm,-,N/A,,Clear,0,2012-11-16 11:15:00
5:35 AM,32.0,32.0,100,30.42,3.0,Calm,Calm,-,N/A,,Clear,0,2012-11-16 11:35:00
6:55 AM,30.2,30.2,100,30.44,1.0,Calm,Calm,-,N/A,,Clear,0,2012-11-16 12:55:00
7:45 AM,33.8,33.8,100,30.46,2.0,Calm,Calm,-,N/A,,Clear,0,2012-11-16 13:45:00
8:03 AM,35.6,35.6,100,30.46,3.0,Calm,Calm,-,N/A,,Clear,0,2012-11-16 14:03:00
8:58 AM,41.0,35.6,81,30.47,7.0,North,5.8,-,N/A,,Clear,10,2012-11-16 14:58:00
9:55 AM,46.4,33.8,62,30.47,10.0,NNE,8.1,-,N/A,,Clear,30,2012-11-16 15:55:00
10:58 AM,51.8,32.0,47,30.47,10.0,NE,5.8,-,N/A,,Clear,50,2012-11-16 16:58:00
11:59 AM,53.6,30.2,41,30.44,12.0,NE,5.8,-,N/A,,Clear,50,2012-11-16 17:59:00
12:53 PM,53.6,30.2,41,30.43,15.0,North,6.9,-,N/A,,Clear,360,2012-11-16 18:53:00
1:58 PM,55.4,26.6,33,30.42,15.0,North,6.9,-,N/A,,Clear,10,2012-11-16 19:58:00
2:52 PM,55.4,24.8,31,30.42,15.0,NNE,5.8,-,N/A,,Clear,30,2012-11-16 20:52:00
3:57 PM,53.6,26.6,35,30.43,15.0,NNE,6.9,-,N/A,,Clear,20,2012-11-16 21:57:00
4:57 PM,48.2,28.4,46,30.43,15.0,NNE,5.8,-,N/A,,Clear,30,2012-11-16 22:57:00
5:58 PM,42.8,32.0,66,30.44,15.0,NE,5.8,-,N/A,,Clear,40,2012-11-16 23:58:00
6:55 PM,39.2,32.0,75,30.45,10.0,Calm,Calm,-,N/A,,Clear,0,2012-11-17 00:55:00
7:15 PM,39.2,32.0,75,30.45,10.0,Calm,Calm,-,N/A,,Clear,0,2012-11-17 01:15:00
7:55 PM,39.2,32.0,75,30.45,10.0,Calm,Calm,-,N/A,,Clear,0,2012-11-17 01:55:00
8:15 PM,39.2,32.0,75,30.45,10.0,Calm,Calm,-,N/A,,Clear,0,2012-11-17 02:15:00
8:35 PM,37.4,32.0,81,30.46,10.0,Calm,Calm,-,N/A,,Clear,0,2012-11-17 02:35:00
8:55 PM,35.6,32.0,87,30.46,10.0,Calm,Calm,-,N/A,,Clear,0,2012-11-17 02:55:00
9:15 PM,35.6,32.0,87,30.46,10.0,Calm,Calm,-,N/A,,Clear,0,2012-11-17 03:15:00
9:35 PM,33.8,32.0,93,30.47,10.0,NNE,3.5,-,N/A,,Clear,20,2012-11-17 03:35:00
9:55 PM,33.8,32.0,93,30.47,10.0,North,3.5,-,N/A,,Clear,10,2012-11-17 03:55:00
10:15 PM,33.8,32.0,93,30.47,7.0,Calm,Calm,-,N/A,,Clear,0,2012-11-17 04:15:00
10:35 PM,33.8,32.0,93,30.47,7.0,Calm,Calm,-,N/A,,Clear,0,2012-11-17 04:35:00
10:55 PM,33.8,32.0,93,30.47,7.0,Calm,Calm,-,N/A,,Clear,0,2012-11-17 04:55:00
11:15 PM,32.0,30.2,93,30.47,7.0,Calm,Calm,-,N/A,,Clear,0,2012-11-17 05:15:00
11:35 PM,32.0,32.0,100,30.47,7.0,Calm,Calm,-,N/A,,Clear,0,2012-11-17 05:35:00
11:55 PM,32.0,30.2,93,30.47,7.0,Calm,Calm,-,N/A,,Clear,0,2012-11-17 05:55:00